Philadelphia International Airport Philadelphia US
ICAO: KPHL
IATA: PHL
Category: Large
Scheduled Services: Yes

Elevation: 36 ft
TransAlt. 18000 ft.

Airport Communications:
APP:123.8
PRM:120.425
ATIS:133.4
CLNC DEL:118.85
DEP:119.75
GND:121.9
TWR:118.5
UNICOM:122.95

KPHL Zoom In..

If you have problems with the map follow the link
https://www.worldairports.se/pages/airport.php?
ICAO=KPHL

Runways:

(A) RW 08 length 5000 ft width 150 ft
---- / hdg 85

(B) RW 09L length 9500 ft width 150 ft
ILS 108.95 / hdg 85

(C) RW 09R length 10506 ft width 200 ft
ILS 109.30 / hdg 85

(D) RW 17 length 6501 ft width 150 ft
ILS 108.75 / hdg 169

(E) RW 26 length 5000 ft width 150 ft
ILS 111.55 / hdg 265

(F) RW 27L length 10506 ft width 200 ft
ILS 109.30 / hdg 265

(G) RW 27R length 9500 ft width 150 ft
ILS 108.95 / hdg 265

(H) RW 35 length 6501 ft width 150 ft
---- / hdg 349

Location; KPHL
Day. 29 / Time. 10.54 Zulu
* Altimeter: 30.04
* Temperature: 03° c. 37.4°f.
* Wind from: 310° Speed 10 kn.
Dewpoint: -08° c.
Visibility: 10 Statute Miles.
Clouds: Broken 4300 ft.
Clouds: Overcast 6000 ft.

KPHL 291054Z 31010KT 10SM BKN043 OVC060 03/M08 A3004 RMK AO2 SLP171 T00281078 $


Wind From 310°
Speed 10 kn.

 
 
jpsmedia worldairports.se 2020   terms of use